Hourly Data Report for March 03, 2004

TORONTO CITY
ONTARIO

43°40'00.000" N
79°24'00.000" W
112.50 m
6158355
71508
XTO

Download Data

Hourly Data (March 2004)
Hourly Data Report for March 3, 2004
TIME
LST
Temp Definition
°C
Dew Point Definition
°C
Rel Hum Definition
%
Precip. Amount Definition
mm

Wind Dir Definition
10's deg

Wind Spd Definition
km/h
Visibility Definition
km
Stn Press Definition
kPa
Hmdx Definition


Wind Chill Definition


Weather Definition


00:00 5.0 1.7 79   LegendMM LegendMM LegendMM 100.88     LegendNANA
01:00 4.8 1.5 79   LegendMM LegendMM LegendMM 100.92     LegendNANA
02:00 4.7 1.6 80   LegendMM LegendMM LegendMM 100.96     LegendNANA
03:00 4.4 1.4 81   LegendMM LegendMM LegendMM 100.96     LegendNANA
04:00 4.4 1.4 81   LegendMM LegendMM LegendMM 100.98     LegendNANA
05:00 4.5 1.4 80   LegendMM LegendMM LegendMM 101.01     LegendNANA
06:00 4.3 1.3 81   LegendMM LegendMM LegendMM 101.07     LegendNANA
07:00 4.1 1.3 82   LegendMM LegendMM LegendMM 101.12     LegendNANA
08:00 4.3 1.5 82   LegendMM LegendMM LegendMM 101.18     LegendNANA
09:00 4.6 1.8 82   LegendMM LegendMM LegendMM 101.18     LegendNANA
10:00 4.8 1.5 79   LegendMM LegendMM LegendMM 101.21     LegendNANA
11:00 5.3 1.8 78   LegendMM LegendMM LegendMM 101.19     LegendNANA
12:00 5.3 1.8 78   LegendMM LegendMM LegendMM 101.13     LegendNANA
13:00 5.3 2.1 80   LegendMM LegendMM LegendMM 101.08     LegendNANA
14:00 5.3 2.7 83   LegendMM LegendMM LegendMM 101.00     LegendNANA
15:00 5.9 3.2 83   LegendMM LegendMM LegendMM 101.01     LegendNANA
16:00 5.7 3.4 85   LegendMM LegendMM LegendMM 101.06     LegendNANA
17:00 5.8 2.8 81   LegendMM LegendMM LegendMM 100.98     LegendNANA
18:00 5.8 2.5 79   LegendMM LegendMM LegendMM 101.01     LegendNANA
19:00 5.6 2.1 78   LegendMM LegendMM LegendMM 100.97     LegendNANA
20:00 5.1 1.9 80   LegendMM LegendMM LegendMM 100.89     LegendNANA
21:00 5.0 2.2 82   LegendMM LegendMM LegendMM 100.93     LegendNANA
22:00 4.5 1.9 83   LegendMM LegendMM LegendMM 100.89     LegendNANA
23:00 4.2 1.9 85   LegendMM LegendMM LegendMM 100.83     LegendNANA

Notes on Data Quality.

Legend

  • E = Estimated
  • M = Missing
  • NA = Not Available*
  • [empty] = Indicates an unobserved value
Date modified: